weather.gov     
National Weather Service

Regional Weather Roundup
NWS Homepage
This page is being discontinued on March 12, 2014.
The same data is available at this site. Please update your bookmarks.
Thank you, and we apologize for the inconvenience.
Please send an email to SR-SRH.Webmaster@noaa.gov with any concerns.


Current Version
Previous Version:    01  02  03  04  05  06  07  08  09  
[Printable]
657
ASUS42 KTBW 171510
RWRFL
FLORIDA REGIONAL WEATHER ROUNDUP
NATIONAL WEATHER SERVICE TAMPA BAY RUSKIN FL
1100 AM EDT THU APR 17 2014

NOTE: "FAIR" INDICATES FEW OR NO CLOUDS BELOW 12,000 FEET WITH NO
SIGNIFICANT WEATHER AND/OR OBSTRUCTIONS TO VISIBILITY.


FLZ001>010-012>015-112-114-115-171600-
PANHANDLE FLORIDA

CITY           SKY/WX    TMP DP  RH WIND       PRES   REMARKS
PENSACOLA      CLOUDY    61  49  64 E6        30.26R
PENSACOLA NAS  PTSUNNY   62  53  72 E15G21    30.25R
MILTON NAS     PTSUNNY   63  49  60 NE9       30.27R
CRESTVIEW      PTSUNNY   61  49  64 NE9       30.29R
DUKE FIELD     PTSUNNY   61  48  62 E12       30.27R
VALPARAISO     PTSUNNY   62  51  66 NE8       30.26R
MARY ESTHER    MOSUNNY   62  46  55 E12       30.25R
TRI COUNTY     FAIR      60  50  69 NE8G22    30.29S
PANAMA CITY    CLOUDY    63  51  65 NE13      30.25R
TYNDALL AFB    DRIZZLE   64  57  77 E9G17     30.25R
APALACHICOLA   PTSUNNY   68  56  65 E15G23    30.24R

STATION/POSITION SKY/WX   TEMP    WIND        PRES    WAVE   SWELL
                          AIR SEA DIR/SP/G            HT/PER HT/PER
                          (F)     (DEG/KT/KT) (MB)    (FT/S) (FT/S)
30.1N   87.6W              61 66   80/ 21/ 27 1023.2R   7/ 7
29.2N   88.2W              67 71   80/ 21/ 25 1021.5R
28.8N   86.0W              66 69   80/ 23/ 27 1022.0    7/ 8
PANAMA CITY BEAC           60 66   60/ 11/ 17 1024.0F
CAPE SAN BLAS    NOT AVBL
TOWER C                    61      70/ 26/ 28 1023.4R
28.5N   84.5W              66 69   70/ 19/ 23 1021.8R   7/ 7

$$
FLZ011-016>038-118-127-128-134-139-239-171600-
NORTH FLORIDA

CITY           SKY/WX    TMP DP  RH WIND       PRES   REMARKS
MARIANNA       PTSUNNY   60  50  69 E16       30.30R
TALLAHASSEE    PTSUNNY   65  51  60 E14       30.30R
PERRY          CLOUDY    63  55  77 NE12      30.29S
CROSS CITY       N/A     68  58  70 NE9G22    30.26R
GAINESVILLE    PTSUNNY   68  60  75 NE16G23   30.27R
MAYPORT NAS    PTSUNNY   69  59  70 NE23G31   30.31R
JACKSONVILLE   CLOUDY    64  58  80 NE18G24   30.33R
JAX NAS        CLOUDY    68  59  73 NE20      30.32R
JAX CRAIG      CLOUDY    68  59  73 NE17G28   30.32R
JAX CECIL      CLOUDY    64  59  82 NE13      30.32R FOG
FERNANDINA BEA CLOUDY    66  57  72 NE21G28   30.31R
ST AUGUSTINE   CLOUDY    70  63  78 NE17      30.31R HAZE

STATION/POSITION SKY/WX   TEMP    WIND        PRES    WAVE   SWELL
                          AIR SEA DIR/SP/G            HT/PER HT/PER
                          (F)     (DEG/KT/KT) (MB)    (FT/S) (FT/S)
SHELL POINT                60      40/  6/ 11 1023.6R
KEATON BEACH               64      60/ 15/ 21 1024.7R
CEDAR KEY                  66      60/ 14/ 17 1024.1R
FERNANDINA                 65 65   40/ 10/ 19 1026.3R
30.7N   81.3W                 64                N/A     9/ 7   2/12
MAYPORT                    64 63   50/ 22/ 24   N/A
31.4N   80.9W              62 64   50/ 23/ 27 1027.3R   7/ 7   3/ 9
ST AUGUSTINE               66      30/ 18/ 20 1026.2R

$$
FLZ040-043>046-052-053-057-058-063-144-171600-
INTERIOR CENTRAL FLORIDA

CITY           SKY/WX    TMP DP  RH WIND       PRES   REMARKS
OCALA          PTSUNNY   72  59  64 E9        30.25R
THE VILLAGES     N/A     75  63  64 NE10G18   30.24R
LEESBURG       CLOUDY    74  63  68 NE14      30.24R
SANFORD        CLOUDY    76  64  66 E21       30.22R
ORLANDO EXEC   CLOUDY    75  64  68 E17       30.21R
ORLANDO INTL   CLOUDY    76  65  68 E14       30.21R
KISSIMMEE      CLOUDY    75  66  73 E15G22    30.21R
WINTER HAVEN   CLOUDY    74  64  71 E13       30.22R
BARTOW         CLOUDY    73  64  73 E12G21    30.21R
OKEECHOBEE     CLOUDY    75  70  83 E9        30.18R

$$
FLZ041-047-054-059-064-141-147-171600-
EAST CENTRAL FLORIDA

CITY           SKY/WX    TMP DP  RH WIND       PRES   REMARKS
ORMOND BEACH   MOSUNNY   73  63  68 E12G17    30.26R
DAYTONA BEACH  PTSUNNY   74  62  66 E14       30.26R
NEW SMYRNA BEA CLOUDY    73  64  73 E12G20    30.25R
JFK SPACE CTR  CLOUDY    73  65  76 E10       30.22R
TITUSVILLE     CLOUDY    73  64  73 E17G25    30.22R
CAPE CANAVERAL MOSUNNY   74  66  75 E14G22    30.21R
PATRICK AFB    MOSUNNY   76  68  77 E22       30.20R
MELBOURNE      CLOUDY    74  67  78 E20       30.20R
VERO BEACH     CLOUDY    75  69  81 NE17G24   30.19R
FT PIERCE      CLOUDY    76  68  76 E17G23    30.18R
STUART         PTSUNNY   75  72  88 E15G22    30.18R

STATION/POSITION SKY/WX   TEMP    WIND        PRES    WAVE   SWELL
                          AIR SEA DIR/SP/G            HT/PER HT/PER
                          (F)     (DEG/KT/KT) (MB)    (FT/S) (FT/S)
28.5N   80.2W              73 74   60/ 19/ 25 1022.6R
28.9N   78.5W              72 76   50/ 21/ 25 1023.2F  10/11   7/11
TRIDENT PIER               74 74   60/ 10/ 17 1022.4R
28.4N   80.5W                 72                N/A     5/ 7   2/11
27.6N   80.2W                 73                N/A     6/12   3/12

$$
FLZ050-056-061-142-242-148-248-149-249-151-251-155-255-
160-260-171600-
WEST CENTRAL FLORIDA

CITY           SKY/WX    TMP DP  RH WIND       PRES   REMARKS
CRYSTAL RIVER  CLOUDY    72  59  64 E12G20    30.23R
INVERNESS      CLOUDY    72  59  64 NE10      30.24R
BROOKSVILLE    MOSUNNY   72  61  68 NE14      30.22R
ZEPHYRHILLS    CLOUDY    73  66  78 E14       30.22R
CLEARWATER     PTSUNNY   72  62  71 E12       30.19R
TAMPA INTL     PTSUNNY   73  62  68 NE7       30.20R
TAMPA EXEC     PTSUNNY   77  63  61 E9G16     30.20S
PLANT CITY     CLOUDY    75  64  69 E12       30.22R
MACDILL AFB    MOSUNNY   74  67  79 E16       30.18R
PETER O KNIGHT MOSUNNY   77  64  65 E14       30.19S
ST PETERSBURG  MOSUNNY   73  66  78 E20       30.17S
SARASOTA       PTSUNNY   78  65  63 E16       30.14S
VENICE           N/A     79  68  69 E14       30.16R

STATION/POSITION SKY/WX   TEMP    WIND        PRES    WAVE   SWELL
                          AIR SEA DIR/SP/G            HT/PER HT/PER
                          (F)     (DEG/KT/KT) (MB)    (FT/S) (FT/S)
CEDAR KEY                  66      60/ 14/ 17 1024.1R
28.5N   84.5W              66 69   70/ 19/ 23 1021.8R   7/ 7
27.3N   84.3W                 72                N/A     6/ 7
CLEARWATER BEACH           72 71   80/ 14/ 19 1021.1R
MIDDLE TAMPA BAY           72      90/ 20/ 24 1021.7F
VENICE                     77 73   60/ 10/ 15 1020.5R

$$
FLZ066-069-070-075>078-162-262-165-265-171600-
SOUTHWEST FLORIDA AND KEYS

CITY           SKY/WX    TMP DP  RH WIND       PRES   REMARKS
PUNTA GORDA    MOSUNNY   80  69  69 E13       30.16S
FT MYERS       PTSUNNY   82  69  64 E14       30.13S
SOUTHWEST INTL MOSUNNY   80  69  69 E13       30.14R
NAPLES         SUNNY     83  74  74 E12       30.13R
MARATHON       MOSUNNY   84  74  71 E8        30.10R
KEY WEST NAS   MOSUNNY   83  74  74 E15       30.10R
KEY WEST INTL  PTSUNNY   82  74  76 E14       30.11R

STATION/POSITION SKY/WX   TEMP    WIND        PRES    WAVE   SWELL
                          AIR SEA DIR/SP/G            HT/PER HT/PER
                          (F)     (DEG/KT/KT) (MB)    (FT/S) (FT/S)
VENICE                     77 73   60/ 10/ 15 1020.5R
NAPLES                     80 76  130/  6/ 10 1020.5R
26.0N   85.6W              76 80  100/ 10/ 12 1019.5R   2/ 6   2/ 6
DRY TORTUGAS     NOT AVBL
NW FL BAY                  78      60/ 11/ 12 1019.0S
SOMBRERO KEY               79      70/  9/ 10 1020.2R
LONG KEY                   80 80   90/ 10/ 10 1020.4R
MOLASSES REEF              79 78   70/  7/  8 1019.8R

$$
FLZ067-068-071>074-168-172>174-171600-
SOUTHEAST FLORIDA

CITY           SKY/WX    TMP DP  RH WIND       PRES   REMARKS
W PALM BEACH   PTSUNNY   80  70  71 E12G21    30.15R
FT LAUDER-EXEC PTSUNNY   78  72  81 E14       30.13R
FT LAUDERDALE  PTSUNNY   81  73  76 NE17      30.13R
POMPANO BEACH  MOSUNNY   82  72  71 E16       30.15R
PEMBROKE PINES LGT RAIN  77  73  87 E10       30.15R
OPA LOCKA      PTSUNNY   80  72  76 E9        30.13R
MIAMI          LGT RAIN  79  72  79 NE10      30.13R
WEST KENDALL   PTSUNNY   85  72  65 E14       30.13R
HOMESTEAD      MOSUNNY   82  70  65 E12       30.12R

STATION/POSITION SKY/WX   TEMP    WIND        PRES    WAVE   SWELL
                          AIR SEA DIR/SP/G            HT/PER HT/PER
                          (F)     (DEG/KT/KT) (MB)    (FT/S) (FT/S)
PORT EVERGLADES            77      50/ 14/ 16 1020.5
VIRGINIA KEY               77 78   70/ 11/ 15 1020.2S
LAKE WORTH                 77 76   60/ 14/ 16 1020.7R
FOWEY ROCKS                76 78   80/ 17/ 18 1020.1R
SETTLEMENT POINT           76      60/ 16/ 17 1021.9R

$$





U.S. Dept. of Commerce
NOAA National Weather Service
1325 East West Highway
Silver Spring, MD 20910
E-mail: w-nws.webmaster@noaa.gov
Page last modified: May 16, 2007
NATIONAL WEATHER SERVICE: for Safety, for Work, for Fun - FOR LIFE